SCP
0 0 0 0 0 0 0 0 0 0 0 0 0 0 0 0 0 0 1 2 2 2 2 3 3 3 3 3 4 5 4 4 3 3 2 2 1 1 1 1 1 1 1 1 0 0 0 0 0
0 0 0 0 0 0 0 0 0 0 0 0 0 0 0 0 0 1 1 2 2 2 3 3 3 3 3 3 4 5 5 4 3 3 2 2 1 1 1 1 1 1 1 1 1 1 0 0 0
0 0 0 0 0 0 0 0 0 0 0 0 0 0 0 0 1 1 2 2 2 2 3 3 3 3 3 4 4 5 5 4 4 3 2 2 2 1 1 1 1 1 1 1 1 1 1 0 0
0 0 0 0 0 0 0 0 0 0 0 0 0 0 0 0 1 2 2 2 2 2 2 3 4 4 3 4 4 5 5 4 4 3 3 2 2 2 2 2 1 1 1 1 1 1 1 0 0
0 0 0 0 0 0 0 0 0 0 0 0 0 0 0 0 1 2 2 2 2 2 2 3 4 4 4 4 4 5 5 5 4 3 3 2 2 2 2 2 2 2 2 1 1 1 1 0 0
0 0 0 0 0 0 0 0 0 0 0 0 0 0 0 0 1 1 2 2 2 2 2 3 4 4 4 4 4 5 5 5 5 4 3 2 2 2 2 2 2 2 2 1 1 1 1 1 0
0 0 0 0 0 0 0 0 0 0 0 0 0 0 0 0 1 1 1 2 2 2 2 3 3 4 4 3 3 4 5 5 5 4 3 2 2 2 2 2 2 2 2 1 1 1 1 1 1
0 0 0 0 0 0 0 0 0 0 0 0 0 0 0 0 1 1 1 2 2 2 2 3 3 3 3 3 3 3 4 4 4 3 2 2 2 2 2 2 2 2 2 1 1 1 1 1 1
0 0 0 0 0 0 0 0 0 0 0 0 0 0 0 0 1 1 1 1 1 2 2 3 3 3 3 3 2 2 3 4 4 3 2 2 2 2 2 1 1 1 1 1 1 1 1 1 1
0 0 0 0 0 0 0 0 0 0 0 0 0 0 0 0 1 1 1 1 1 1 2 2 2 3 3 3 2 2 3 3 3 3 2 2 2 2 1 1 1 1 1 1 1 1 1 1 0
0 0 0 0 0 0 0 0 0 0 0 0 0 0 0 0 0 1 1 1 1 1 1 1 2 2 3 3 3 3 3 3 3 3 2 2 2 2 2 1 1 1 1 1 1 1 1 0 0
0 0 0 0 0 0 0 0 0 0 0 0 0 0 0 0 0 0 1 1 1 1 1 1 1 2 3 3 3 3 3 3 3 3 2 3 3 2 2 2 2 1 1 1 1 1 1 0 0
0 0 0 0 0 0 0 0 0 0 0 0 0 0 0 0 0 0 0 1 1 1 1 1 1 2 2 3 3 3 3 3 3 3 3 3 3 2 2 2 2 2 1 1 1 1 1 0 0
0 0 0 0 0 0 0 0 0 0 0 0 0 0 0 0 0 0 0 0 1 1 1 1 1 2 2 2 3 3 3 3 3 3 3 3 3 3 2 2 2 2 1 1 1 1 1 1 0
0 0 0 0 0 0 0 0 0 0 0 0 0 0 0 0 0 0 0 0 0 0 1 1 1 1 1 2 2 2 2 3 3 3 3 3 3 3 2 2 2 2 2 1 1 1 1 1 1
0 0 0 0 0 0 0 0 0 0 0 0 0 0 0 0 0 0 0 0 0 0 0 1 1 1 1 1 2 2 2 2 3 3 3 2 2 2 2 2 2 2 2 2 1 1 1 1 1
0 0 0 0 0 0 0 0 0 0 0 0 0 0 0 0 0 0 0 0 0 0 0 1 1 1 1 1 1 2 2 2 3 3 2 2 2 2 2 2 2 2 2 2 1 1 1 1 1
0 0 0 0 0 0 0 0 0 0 0 0 0 0 0 0 0 0 0 0 0 0 1 1 1 1 1 1 1 2 2 2 2 2 2 1 1 1 2 2 2 2 2 1 1 1 1 1 1
0 0 0 0 0 0 0 0 0 0 0 0 0 0 0 0 0 0 0 0 0 1 1 1 1 1 1 1 1 1 2 3 3 3 2 1 1 1 1 2 2 2 2 2 1 1 1 1 0
0 0 0 0 0 0 0 0 0 0 0 0 0 0 0 0 0 0 0 0 0 1 1 1 1 1 1 1 1 1 2 3 3 3 2 2 1 1 1 1 2 3 3 2 1 1 1 1 0
0 0 0 0 0 0 0 0 0 0 0 0 0 0 0 0 0 0 0 0 0 1 1 1 1 1 1 1 1 1 2 3 3 3 3 2 2 1 1 1 1 2 3 2 1 1 1 1 1
0 0 0 0 0 0 0 0 0 0 0 0 0 0 0 0 0 0 0 0 0 0 1 1 1 1 1 1 1 1 2 3 3 3 3 3 2 2 1 1 1 2 3 3 2 1 1 1 1
0 0 0 0 0 0 0 0 0 0 0 0 0 0 0 0 0 0 0 0 0 0 1 1 1 1 0 0 0 1 1 2 2 3 3 3 2 2 1 1 1 1 2 2 2 1 1 1 1
0 0 0 0 0 0 0 0 0 0 0 0 0 0 0 0 0 0 0 0 0 0 0 0 0 0 0 0 0 0 1 1 2 3 3 3 3 2 1 1 1 1 1 2 2 1 1 1 1
0 0 0 0 0 0 0 0 0 0 0 0 0 0 0 0 0 0 0 0 0 0 0 0 0 0 0 0 0 0 1 1 2 2 3 3 3 2 1 1 1 1 1 2 2 1 1 1 1
0 0 0 0 0 0 0 0 0 0 0 0 0 0 0 0 0 0 0 0 0 0 0 0 0 0 0 0 0 0 1 1 1 2 2 2 2 2 1 1 1 1 1 1 1 1 1 1 1
0 0 0 0 0 0 0 0 0 0 0 0 0 0 0 0 0 0 0 0 0 0 0 0 0 0 0 0 0 0 1 1 1 1 2 2 1 1 1 1 1 1 1 1 1 1 1 1 1
0 0 0 0 0 0 0 0 0 0 0 0 0 0 0 0 0 0 0 0 0 0 0 0 0 0 0 0 0 0 1 1 1 1 1 1 1 1 1 1 1 1 1 1 1 1 1 1 1
0 0 0 0 0 0 0 0 0 0 0 0 0 0 0 0 0 0 0 0 0 0 0 0 0 0 0 0 0 0 1 1 1 1 1 1 1 1 1 0 0 0 1 1 1 1 1 1 1
0 0 0 0 0 0 0 0 0 0 0 0 0 0 0 0 0 0 0 0 0 0 0 0 0 0 0 0 0 0 1 1 1 0 1 1 1 1 1 0 0 0 1 1 1 1 1 1 1
Wind_Speed
5 3 2 3 5 6 11 8 5 5 5 3 3 6 7 7 5 1 6 6 6 2 2 7 7 9 12 12 12 14 15 15 16 17 17 17 16 16 16 15 15 14 14 15 14 14 15 15 15
4 2 3 4 7 9 8 7 9 6 1 2 4 6 7 6 2 4 4 7 6 1 2 5 6 8 11 12 13 13 15 16 16 16 17 17 16 16 16 15 15 14 14 14 14 14 15 14 14
1 2 3 5 7 8 4 3 5 4 2 3 4 4 5 4 2 3 6 7 4 1 1 3 5 7 9 11 13 13 15 16 16 16 16 17 16 16 16 15 14 13 13 13 14 14 14 14 14
2 3 3 6 10 7 4 1 1 4 4 4 4 5 3 1 3 5 7 6 4 1 2 3 4 6 8 9 12 13 14 16 16 16 16 16 16 16 16 14 13 13 13 14 14 14 14 13 13
1 3 6 7 9 5 4 3 3 5 5 4 5 6 5 2 3 6 7 6 4 2 2 3 4 6 8 8 10 13 13 15 16 16 16 16 16 16 15 13 13 14 14 14 15 14 14 13 12
3 3 6 8 8 5 5 5 6 7 7 6 6 8 6 2 4 7 8 6 5 4 3 3 5 6 7 8 9 12 13 14 15 15 16 16 15 15 14 14 14 15 15 15 14 14 13 13 12
3 3 5 6 6 6 4 4 7 7 8 7 5 7 5 4 5 8 8 6 5 4 4 3 5 6 8 8 8 11 12 12 14 14 14 14 13 13 14 14 15 15 15 14 13 13 13 13 12
1 3 4 5 6 5 1 3 4 7 8 5 5 7 6 4 7 9 9 7 5 4 4 4 4 5 7 8 9 10 11 11 12 13 12 11 11 12 13 14 14 14 14 13 13 13 13 12 12
3 4 6 4 4 2 2 4 4 5 7 7 7 9 10 11 11 9 8 7 6 5 4 4 4 5 6 7 9 11 10 10 11 12 11 11 12 13 12 14 13 13 13 13 13 12 12 10 10
4 5 4 2 3 3 4 6 6 6 9 9 9 10 10 10 9 9 9 9 8 7 5 4 4 4 5 5 6 8 9 10 11 11 13 11 10 10 10 12 12 12 12 12 12 11 12 9 8
4 5 2 4 5 6 7 7 7 8 10 10 10 11 9 10 8 9 9 9 9 8 7 5 5 4 5 4 5 5 6 7 9 12 12 10 9 8 8 7 9 10 12 11 11 11 9 8 7
4 4 5 4 4 6 7 7 7 10 11 11 11 10 10 10 9 9 10 10 9 8 8 6 6 5 5 4 5 6 6 6 6 9 12 9 7 7 8 7 8 9 8 9 9 8 10 9 9
5 3 4 6 7 8 8 10 10 12 12 11 10 10 11 10 10 9 9 10 10 9 8 8 6 6 5 4 4 5 6 6 7 7 9 10 8 9 8 7 8 9 8 9 9 9 9 9 8
2 4 6 7 7 5 7 9 8 9 9 9 9 9 9 9 10 9 9 9 9 9 8 7 7 6 5 4 5 5 6 6 6 6 8 11 8 8 8 8 8 8 8 8 8 9 8 8 7
3 4 5 3 3 2 5 7 6 8 9 8 8 8 8 8 8 9 9 9 9 8 7 7 7 6 6 6 6 5 5 6 6 6 8 9 9 9 9 8 8 8 8 9 8 9 8 7 7
3 4 3 1 2 2 5 7 5 6 7 8 7 7 7 7 8 8 8 8 8 8 7 5 5 6 5 5 5 5 5 6 6 6 7 9 10 10 9 8 8 9 8 8 8 8 8 7 7
3 3 3 1 1 2 4 8 7 8 7 8 8 7 7 8 8 7 7 7 7 7 7 5 5 5 5 5 5 5 5 6 5 6 6 8 10 10 9 8 8 9 8 8 8 8 8 8 8
2 3 3 3 2 3 6 8 9 8 7 7 7 7 6 7 7 7 7 7 6 6 5 5 5 4 4 4 4 4 5 5 5 6 7 9 9 10 9 7 9 9 8 8 8 9 8 7 7
2 3 5 4 4 5 7 9 9 7 5 6 6 7 7 7 7 6 6 6 5 4 4 4 5 4 3 3 4 5 5 5 5 5 6 8 10 10 9 7 8 9 8 9 10 9 10 8 7
3 4 4 4 3 5 7 10 6 4 4 5 7 8 8 8 8 7 7 6 6 5 4 4 4 4 4 4 4 4 5 5 5 4 5 8 9 9 9 10 8 9 8 10 10 9 7 7 7
4 5 4 5 6 3 6 5 1 2 3 6 7 7 8 8 9 9 8 6 5 5 5 5 5 5 5 5 4 4 4 4 4 5 5 7 8 9 9 10 9 9 9 9 10 10 11 8 8
4 3 4 5 5 2 4 4 1 3 4 7 8 8 8 8 8 8 8 6 5 5 4 5 5 4 4 4 5 6 6 6 6 5 5 6 8 9 9 10 10 9 8 9 10 11 9 10 9
2 2 3 4 3 4 2 4 2 3 5 7 8 8 9 8 8 7 7 6 6 5 5 4 4 4 4 4 5 6 6 5 4 5 6 7 7 8 9 10 10 10 9 10 10 10 11 9 9
2 2 2 2 3 3 2 4 2 2 5 7 8 8 9 9 8 7 7 7 6 6 5 5 5 4 4 3 3 5 6 6 6 6 6 6 5 6 8 9 9 10 9 10 11 11 12 10 11
1 2 2 2 3 1 1 4 3 3 4 6 7 8 8 8 8 8 9 8 7 7 6 5 5 5 4 3 2 3 5 6 7 7 6 6 5 5 8 8 9 9 9 10 10 10 10 11 12
1 2 2 2 2 1 2 4 1 3 4 4 5 6 7 8 8 9 9 8 8 7 7 6 6 5 5 4 3 2 3 4 4 5 5 6 5 6 7 9 9 10 10 10 10 9 10 10 11
1 1 2 2 2 4 3 3 2 2 4 4 4 6 7 8 9 9 9 8 8 8 8 7 7 6 6 5 4 2 2 2 3 4 4 4 5 5 7 8 9 9 10 10 10 8 11 11 11
1 1 2 2 2 3 2 3 1 2 4 4 4 5 7 8 8 9 9 8 8 8 7 8 7 6 6 5 4 2 2 3 3 3 3 4 5 5 6 7 8 8 9 9 9 9 11 11 11
2 2 1 1 3 3 3 1 2 1 2 3 4 5 6 7 8 8 8 8 7 8 8 8 8 8 6 5 4 4 3 3 3 3 4 4 4 5 6 6 8 8 9 9 9 10 10 12 12
2 2 3 2 2 3 4 1 3 2 2 2 4 4 5 6 6 7 8 8 8 9 9 8 8 8 7 6 5 5 4 4 3 3 3 4 5 5 5 6 7 7 8 8 9 10 10 11 12
Wind_Direction
340 323 258 206 205 224 235 222 213 202 205 222 257 253 251 246 249 46 42 7 348 327 180 165 171 173 170 166 162 163 162 163 163 164 163 163 161 158 157 157 156 153 148 143 139 134 127 122 119
340 304 206 205 226 226 228 220 215 211 202 275 246 243 244 243 286 357 8 354 337 323 178 172 163 173 175 170 166 165 165 165 166 167 167 166 164 162 162 162 159 154 148 144 139 133 129 125 122
338 314 208 203 225 237 233 190 219 203 241 257 242 247 256 260 297 339 354 335 329 321 191 165 164 174 176 176 171 169 170 170 169 170 170 169 168 167 166 165 160 153 146 141 137 135 132 130 128
218 176 202 229 229 240 270 203 226 231 231 245 256 246 232 313 328 340 340 332 322 296 219 170 178 182 175 176 177 176 176 176 173 172 172 171 171 171 169 165 157 151 146 143 142 140 138 136 134
210 197 206 228 238 238 248 263 269 255 246 245 258 259 256 260 319 337 342 334 319 290 248 192 190 189 184 177 180 180 179 180 178 176 176 174 175 173 169 163 156 153 150 149 148 146 145 143 141
171 206 222 233 232 240 246 253 260 260 258 262 265 262 261 271 319 333 335 329 315 297 267 226 195 195 187 186 186 186 184 182 181 180 179 177 176 173 168 164 160 158 157 156 154 152 150 148 145
199 209 239 250 247 246 245 249 252 261 260 264 273 265 253 262 324 324 322 319 312 298 274 250 216 201 193 190 192 194 188 185 185 182 181 179 175 171 167 165 164 163 162 160 158 157 155 154 149
221 216 225 233 243 247 252 260 270 270 272 288 267 255 253 295 319 317 314 307 303 294 287 265 240 218 206 199 193 193 190 187 188 185 180 175 171 170 167 168 167 166 164 163 162 162 160 156 153
199 224 231 229 243 250 250 265 278 283 269 267 260 266 280 299 304 305 306 304 298 293 292 279 258 232 216 210 197 194 192 191 189 186 176 175 182 180 176 177 167 167 165 165 166 164 160 153 152
204 230 240 251 260 272 274 279 286 270 263 263 258 263 276 286 292 296 298 298 299 293 292 285 270 252 228 216 204 201 198 195 198 195 187 188 188 186 184 168 166 167 166 167 168 163 160 171 168
208 238 248 252 265 276 277 279 277 269 268 271 278 284 290 291 293 291 289 287 286 286 285 283 273 263 242 223 213 205 199 196 202 200 192 190 188 182 181 172 171 174 173 176 171 172 182 190 180
214 240 252 266 276 273 276 279 277 266 274 292 289 289 290 288 287 288 288 286 285 283 280 277 274 258 241 228 222 209 199 196 197 199 194 190 186 185 183 182 183 183 185 184 184 192 189 194 189
221 247 261 268 274 273 271 269 277 277 284 291 290 287 282 281 283 284 282 283 283 282 280 277 271 258 241 227 225 217 205 199 196 199 197 193 189 188 187 188 188 190 188 188 191 195 193 195 194
238 262 277 282 278 277 274 279 273 285 298 292 288 283 285 284 284 288 287 285 283 279 276 274 269 252 236 227 220 220 211 200 196 196 200 197 194 191 189 191 191 193 192 193 195 195 193 195 195
242 264 267 266 274 281 280 273 266 296 306 300 298 296 293 290 287 282 283 282 281 280 275 269 267 250 230 225 222 217 214 204 195 196 201 202 197 195 194 195 193 194 194 193 195 193 193 193 195
219 236 248 93 301 290 274 285 316 325 319 312 309 306 301 301 295 290 291 288 286 284 279 271 265 251 233 225 223 215 211 209 203 197 200 205 201 198 197 197 197 195 193 193 193 192 193 194 197
209 246 269 306 345 300 276 287 310 326 323 318 316 315 313 312 308 303 299 293 290 285 279 276 265 248 234 225 223 217 211 213 211 204 200 203 203 200 199 199 199 194 193 194 194 196 195 196 198
230 260 273 288 343 305 281 286 304 319 319 318 322 320 313 308 307 309 312 309 302 293 283 281 267 255 243 228 218 211 211 212 215 211 204 203 204 201 202 203 200 195 193 194 196 197 198 199 197
258 263 284 298 307 294 285 293 304 320 326 330 329 327 326 325 323 327 328 327 323 313 299 282 276 261 243 224 214 206 206 208 213 214 211 209 204 201 203 205 202 199 198 199 199 197 198 197 190
228 256 279 299 312 292 297 294 301 328 337 337 336 337 336 334 334 331 329 329 327 325 315 290 272 262 244 228 222 216 212 209 212 211 211 210 207 203 203 205 203 202 200 202 200 196 198 197 192
239 245 277 301 311 267 297 278 249 7 356 355 348 339 339 339 335 333 335 333 326 330 321 306 290 270 254 237 221 214 209 208 212 211 211 209 207 205 205 209 209 206 203 202 202 200 201 198 198
252 248 266 282 296 306 318 296 302 347 347 357 352 348 346 343 338 337 335 337 338 335 329 318 307 286 267 243 219 214 211 211 214 214 212 210 208 208 208 212 211 210 209 208 206 203 206 204 202
255 300 272 269 271 277 259 269 290 355 333 342 344 347 348 343 341 340 339 340 341 340 339 334 323 319 297 263 227 219 221 221 216 219 215 210 208 213 213 212 211 211 212 212 212 209 211 210 209
234 256 221 217 239 256 256 257 294 4 328 329 334 342 345 343 346 347 349 351 355 357 353 347 346 340 322 295 252 225 218 217 216 221 221 211 210 214 216 217 215 215 215 215 216 215 215 216 216
224 254 219 205 219 250 119 252 278 1 345 326 327 337 342 347 351 352 356 358 1 359 357 353 351 345 336 325 295 245 227 222 223 227 227 215 212 216 216 217 219 218 219 219 217 218 219 220 221
226 280 312 299 296 318 215 253 313 19 342 330 329 339 347 353 356 356 357 358 358 357 357 358 355 350 341 333 316 292 255 236 233 231 235 225 220 224 224 223 223 222 220 220 219 219 220 222 224
190 187 346 299 285 266 250 260 252 13 344 341 340 349 356 357 357 356 356 357 356 356 357 358 354 348 342 336 322 315 294 268 253 245 239 234 230 230 228 230 229 228 227 224 222 222 222 223 224
350 130 207 242 277 282 273 254 295 330 339 349 347 349 352 355 356 354 354 355 355 354 355 359 358 348 340 338 335 324 307 286 272 260 251 250 243 236 232 234 235 233 231 228 225 226 225 226 226
157 171 223 246 290 288 291 339 50 313 331 338 343 349 350 353 354 354 355 354 351 351 355 359 356 352 349 342 336 335 324 301 285 266 252 251 252 249 246 241 236 234 234 230 229 230 229 229 228
252 233 221 258 244 261 278 299 68 332 341 340 337 343 350 354 354 357 357 356 358 356 353 353 351 353 351 349 349 347 338 324 306 303 283 265 256 249 250 246 242 238 238 236 234 234 233 233 232